| time (UTC) | temp F | wind direction | speed knots | gust knots | rain 1hr in | rain 24hr in | rain mn in | humidity % | barometer mb |
| 20260901053521 | 69 | 287 | 0.0 | 0.0 | 0.00 | 0.00 | 0.00 | 81 | 1012.7 |
| 20260901052018 | 69 | 287 | 0.0 | 0.0 | 0.00 | 0.00 | 0.00 | 81 | 1012.5 |
| 20260901050519 | 69 | 287 | 0.0 | 0.0 | 0.00 | 0.00 | 0.00 | 80 | 1012.3 |
| 20260901045018 | 69 | 287 | 0.0 | 0.0 | 0.00 | 0.00 | 0.00 | 80 | 1012.4 |
| 20260901043520 | 70 | 287 | 0.0 | 0.0 | 0.00 | 0.00 | 0.00 | 79 | 1012.2 |
| 20260901042022 | 70 | 287 | 0.0 | 0.0 | 0.00 | 0.00 | 0.00 | 78 | 1012.2 |
| 20260901040523 | 70 | 287 | 0.0 | 0.0 | 0.00 | 0.00 | 0.00 | 77 | 1012.2 |
| 20260901035053 | 71 | 287 | 0.0 | 0.0 | 0.00 | 0.00 | 0.00 | 76 | 1012.2 |
| 20260901033533 | 71 | 286 | 0.0 | 0.0 | 0.00 | 0.00 | 0.00 | 74 | 1011.8 |
| 20260901032052 | 72 | 287 | 0.0 | 0.0 | 0.00 | 0.00 | 0.00 | 73 | 1011.6 |
| 20260901030532 | 72 | 287 | 0.0 | 4.3 | 0.00 | 0.00 | 0.00 | 73 | 1011.5 |
| 20260901025014 | 73 | 294 | 0.0 | 0.0 | 0.00 | 0.00 | 0.00 | 71 | 1011.4 |
| 20260901023517 | 74 | 296 | 0.0 | 0.0 | 0.00 | 0.00 | 0.00 | 70 | 1011.2 |
| 20260901022015 | 75 | 279 | 0.0 | 0.0 | 0.00 | 0.00 | 0.00 | 68 | 1011.0 |
| 20260901020518 | 76 | 298 | 0.0 | 0.0 | 0.00 | 0.00 | 0.00 | 66 | 1010.9 |
| 20260901015021 | 77 | 267 | 0.0 | 0.0 | 0.00 | 0.00 | 0.00 | 64 | 1010.8 |
| 20260901013523 | 77 | 299 | 0.0 | 0.0 | 0.00 | 0.00 | 0.00 | 64 | 1010.7 |
| 20260901012023 | 78 | 266 | 0.0 | 7.0 | 0.00 | 0.00 | 0.00 | 64 | 1010.8 |
| 20260901010553 | 79 | 301 | 0.0 | 6.1 | 0.00 | 0.00 | 0.00 | 64 | 1010.8 |
| 20260901005014 | 80 | 265 | 0.9 | 6.1 | 0.00 | 0.00 | 0.00 | 62 | 1010.9 |
| 20260901003515 | 81 | 305 | 0.9 | 4.3 | 0.00 | 0.00 | 0.00 | 58 | 1010.8 |
| 20260901002014 | 81 | 238 | 0.0 | 5.2 | 0.00 | 0.00 | 0.00 | 56 | 1010.9 |
| 20260901000517 | 80 | 322 | 0.0 | 8.7 | 0.00 | 0.00 | 0.00 | 57 | 1010.9 |
| 20260831235016 | 81 | 257 | 0.0 | 7.0 | 0.00 | 0.00 | 0.00 | 54 | 1010.9 |
| 20260831233542 | 81 | 267 | 0.0 | 7.0 | 0.00 | 0.00 | 0.00 | 56 | 1011.1 |
| 20260831232020 | 81 | 294 | 0.0 | 7.8 | 0.00 | 0.00 | 0.00 | 54 | 1011.1 |
| 20260831230521 | 81 | 218 | 0.9 | 7.0 | 0.00 | 0.00 | 0.00 | 56 | 1011.2 |
| 20260831225022 | 82 | 242 | 0.0 | 9.6 | 0.00 | 0.00 | 0.00 | 55 | 1011.3 |
| 20260831223517 | 81 | 255 | 0.9 | 8.7 | 0.00 | 0.00 | 0.00 | 55 | 1011.5 |
| 20260831222016 | 81 | 277 | 2.6 | 9.6 | 0.00 | 0.00 | 0.00 | 56 | 1011.7 |
| 20260831220520 | 81 | 263 | 2.6 | 10.4 | 0.00 | 0.00 | 0.00 | 57 | 1011.5 |
| 20260831215033 | 81 | 254 | 1.7 | 10.4 | 0.00 | 0.00 | 0.00 | 57 | 1011.6 |
| 20260831213516 | 82 | 294 | 0.9 | 9.6 | 0.00 | 0.00 | 0.00 | 56 | 1011.5 |
| 20260831212033 | 83 | 259 | 0.9 | 8.7 | 0.00 | 0.00 | 0.00 | 55 | 1011.6 |
| 20260831210532 | 82 | 256 | 1.7 | 9.6 | 0.00 | 0.00 | 0.00 | 57 | 1011.7 |
| 20260831205030 | 81 | 269 | 1.7 | 10.4 | 0.00 | 0.00 | 0.00 | 57 | 1011.8 |
| 20260831203533 | 82 | 286 | 1.7 | 7.0 | 0.00 | 0.00 | 0.00 | 58 | 1012.0 |
| 20260831202033 | 82 | 263 | 1.7 | 7.8 | 0.00 | 0.00 | 0.00 | 57 | 1012.0 |
| 20260831200544 | 82 | 286 | 1.7 | 8.7 | 0.00 | 0.00 | 0.00 | 59 | 1012.1 |
| 20260831195020 | 83 | 244 | 2.6 | 8.7 | 0.00 | 0.00 | 0.00 | 58 | 1012.0 |
| 20260831193518 | 82 | 271 | 0.9 | 10.4 | 0.00 | 0.00 | 0.00 | 57 | 1012.0 |
| 20260831192032 | 82 | 289 | 1.7 | 9.6 | 0.00 | 0.00 | 0.00 | 57 | 1012.3 |
| 20260831190534 | 82 | 265 | 0.9 | 5.2 | 0.00 | 0.00 | 0.00 | 56 | 1012.2 |
| 20260831185026 | 82 | 294 | 0.0 | 0.0 | 0.00 | 0.00 | 0.00 | 59 | 1012.3 |
| 20260831183518 | 83 | 286 | 0.0 | 0.0 | 0.00 | 0.00 | 0.00 | 58 | 1012.3 |
| 20260831182030 | 81 | 261 | 0.0 | 0.0 | 0.00 | 0.00 | 0.00 | 59 | 1012.5 |
| 20260831180553 | 82 | 246 | 0.0 | 0.0 | 0.00 | 0.00 | 0.00 | 59 | 1012.4 |
| 20260831175018 | 80 | 227 | 0.0 | 0.0 | 0.00 | 0.00 | 0.00 | 62 | 1012.3 |
| 20260831173534 | 80 | 254 | 0.0 | 0.0 | 0.00 | 0.00 | 0.00 | 62 | 1012.2 |
| 20260831172021 | 79 | 280 | 0.0 | 0.0 | 0.00 | 0.00 | 0.00 | 65 | 1012.2 |
| 20260831170532 | 78 | 253 | 0.0 | 0.0 | 0.00 | 0.00 | 0.00 | 66 | 1012.2 |
| 20260831165020 | 77 | 254 | 0.0 | 0.0 | 0.00 | 0.00 | 0.00 | 69 | 1012.2 |
| 20260831163515 | 77 | 212 | 0.0 | 0.0 | 0.00 | 0.00 | 0.00 | 68 | 1012.2 |
| 20260831162026 | 76 | 173 | 0.0 | 0.0 | 0.00 | 0.00 | 0.00 | 70 | 1012.1 |
| 20260831160530 | 76 | 179 | 0.0 | 0.0 | 0.00 | 0.00 | 0.00 | 71 | 1012.1 |
| 20260831155019 | 74 | 259 | 0.0 | 0.0 | 0.00 | 0.00 | 0.00 | 74 | 1012.2 |
| 20260831153529 | 73 | 260 | 0.0 | 0.0 | 0.00 | 0.00 | 0.00 | 76 | 1012.2 |
| 20260831152021 | 72 | 260 | 0.0 | 0.0 | 0.00 | 0.00 | 0.00 | 77 | 1012.0 |
| 20260831150533 | 71 | 260 | 0.0 | 0.0 | 0.00 | 0.00 | 0.00 | 80 | 1011.8 |
| 20260831145025 | 70 | 260 | 0.0 | 0.0 | 0.00 | 0.00 | 0.00 | 81 | 1011.9 |
| 20260831143526 | 70 | 260 | 0.0 | 0.0 | 0.00 | 0.00 | 0.00 | 81 | 1011.7 |
| 20260831142022 | 70 | 260 | 0.0 | 0.0 | 0.00 | 0.00 | 0.00 | 81 | 1011.7 |
| 20260831140519 | 70 | 260 | 0.0 | 0.0 | 0.00 | 0.00 | 0.00 | 82 | 1011.5 |
| 20260831135020 | 69 | 260 | 0.0 | 0.0 | 0.00 | 0.00 | 0.00 | 82 | 1011.3 |
| 20260831133531 | 69 | 260 | 0.0 | 0.0 | 0.00 | 0.00 | 0.00 | 82 | 1011.1 |
| 20260831132025 | 69 | 260 | 0.0 | 0.0 | 0.00 | 0.00 | 0.00 | 81 | 1010.8 |
| 20260831130526 | 69 | 260 | 0.0 | 0.0 | 0.00 | 0.00 | 0.00 | 81 | 1010.8 |
| 20260831125032 | 69 | 260 | 0.0 | 0.0 | 0.00 | 0.00 | 0.00 | 81 | 1010.7 |
| 20260831123533 | 69 | 260 | 0.0 | 0.0 | 0.00 | 0.00 | 0.00 | 81 | 1010.7 |
| 20260831122034 | 70 | 260 | 0.0 | 0.0 | 0.00 | 0.00 | 0.00 | 81 | 1010.7 |
| 20260831120518 | 70 | 260 | 0.0 | 0.0 | 0.00 | 0.00 | 0.00 | 81 | 1010.6 |
| 20260831115019 | 70 | 260 | 0.0 | 0.0 | 0.00 | 0.00 | 0.00 | 81 | 1010.7 |
| 20260831113519 | 70 | 260 | 0.0 | 0.0 | 0.00 | 0.00 | 0.00 | 81 | 1010.7 |
| 20260831112032 | 70 | 260 | 0.0 | 0.0 | 0.00 | 0.00 | 0.00 | 81 | 1010.7 |
| 20260831110516 | 70 | 260 | 0.0 | 0.0 | 0.00 | 0.00 | 0.00 | 81 | 1010.8 |
| 20260831105018 | 70 | 260 | 0.0 | 0.0 | 0.00 | 0.00 | 0.00 | 81 | 1010.8 |
| 20260831103524 | 70 | 260 | 0.0 | 0.0 | 0.00 | 0.00 | 0.00 | 81 | 1010.9 |
| 20260831102022 | 70 | 260 | 0.0 | 0.0 | 0.00 | 0.00 | 0.00 | 81 | 1010.9 |
| 20260831100523 | 70 | 260 | 0.0 | 0.0 | 0.00 | 0.00 | 0.00 | 82 | 1010.8 |
| 20260831095025 | 70 | 260 | 0.0 | 0.0 | 0.00 | 0.00 | 0.00 | 82 | 1010.9 |
| 20260831093556 | 70 | 260 | 0.0 | 0.0 | 0.00 | 0.00 | 0.00 | 83 | 1010.8 |
| 20260831092034 | 71 | 260 | 0.0 | 0.0 | 0.00 | 0.00 | 0.00 | 83 | 1010.7 |
| 20260831090532 | 71 | 260 | 0.0 | 0.0 | 0.00 | 0.00 | 0.00 | 84 | 1010.9 |
| 20260831085034 | 71 | 260 | 0.0 | 0.0 | 0.00 | 0.00 | 0.00 | 84 | 1010.9 |
| 20260831083536 | 70 | 260 | 0.0 | 0.0 | 0.00 | 0.00 | 0.00 | 84 | 1011.0 |
| 20260831082034 | 70 | 260 | 0.0 | 0.0 | 0.00 | 0.00 | 0.00 | 84 | 1010.9 |
| 20260831080532 | 70 | 260 | 0.0 | 6.1 | 0.00 | 0.00 | 0.00 | 84 | 1011.1 |
| 20260831075029 | 70 | 260 | 0.0 | 0.0 | 0.00 | 0.00 | 0.00 | 84 | 1010.9 |
| 20260831073532 | 70 | 260 | 0.0 | 0.0 | 0.00 | 0.00 | 0.00 | 85 | 1011.2 |
| 20260831072028 | 70 | 260 | 0.0 | 0.0 | 0.00 | 0.00 | 0.00 | 84 | 1011.1 |
| 20260831070527 | 70 | 260 | 0.0 | 0.0 | 0.00 | 0.00 | 0.00 | 84 | 1011.1 |
| 20260831065016 | 71 | 260 | 0.0 | 0.0 | 0.00 | 0.00 | 0.00 | 85 | 1011.2 |
| 20260831063516 | 71 | 260 | 0.0 | 0.0 | 0.00 | 0.00 | 0.00 | 84 | 1011.0 |
| 20260831062034 | 70 | 260 | 0.0 | 0.0 | 0.00 | 0.00 | 0.00 | 84 | 1011.0 |
| 20260831060517 | 70 | 260 | 0.0 | 0.0 | 0.00 | 0.00 | 0.00 | 84 | 1010.9 |
| 20260831055033 | 70 | 260 | 0.0 | 0.0 | 0.00 | 0.00 | 0.00 | 84 | 1011.0 |